Weather History for Bullhead City, AZ

Change the Weather History Date:

Tuesday, January 14, 2014

  Actual Average Record
Temperature  
Mean Temperature 63 °F -  
Max Temperature 71 °F 63 °F 73 °F (2000)
Min Temperature 55 °F 46 °F 29 °F (1989)
Degree Days  
Heating Degree Days 2    
Growing Degree Days 13 (Base 50)    
Moisture  
Dew Point 19 °F    
Average Humidity 19    
Maximum Humidity 27    
Minimum Humidity 13    
Precipitation  
Precipitation 0.00 in - - ()
Sea Level Pressure  
Sea Level Pressure 30.36 in    
Wind  
Wind Speed 18 mph (NNE)    
Max Wind Speed 34 mph    
Max Gust Speed 43 mph    
Visibility 10 miles    
Events      
Averages and records for this station are not official NWS values.
T = Trace of Precipitation, MM = Missing Value Source: NWS Daily Summary

Daily Weather History Graph

Daily Weather History Graph

Search for Another Location

Airport:

Trip Planner

Search our weather history database for the weather conditions in past years. The results will help you decide how hot, cold, wet, or windy it might be!

Date:

Astronomy

Jan. 14, 2014 Rise Set
Actual Time 7:46 AM MST 5:48 PM MST
Civil Twilight 7:18 AM MST 6:16 PM MST
Nautical Twilight 6:47 AM MST 6:47 PM MST
Astronomical Twilight 6:17 AM MST 7:18 PM MST
Moon 4:56 PM MST (1/14) 6:24 AM MST (1/14)
Length of Visible Light 10h 57m
Length of Day
10h 02m
Waxing Gibbous, 98% of the Moon is Illuminated
Jan 14
Waxing Gibbous
Jan 15
Full
Jan 23
Last Quarter
Jan 30
New
Feb 6
First Quarter

Hourly Weather History & Observations

Time (MST) Temp. Dew Point Humidity Pressure Visibility Wind Dir Wind Speed Gust Speed Precip Events Conditions
12:15 AM 57.2 °F 19.4 °F 23% 30.35 in 10.0 mi East 4.6 mph - N/A   Clear
12:35 AM 57.2 °F 19.4 °F 23% 30.34 in 10.0 mi North 9.2 mph - N/A   Clear
12:55 AM 59.0 °F 19.4 °F 22% 30.33 in 10.0 mi WSW 3.5 mph - N/A   Clear
1:15 AM 57.2 °F 23.0 °F 27% 30.33 in 10.0 mi Calm Calm - N/A   Clear
1:35 AM 59.0 °F 19.4 °F 22% 30.32 in 10.0 mi North 15.0 mph 23.0 mph N/A   Clear
1:55 AM 59.0 °F 19.4 °F 22% 30.31 in 10.0 mi North 18.4 mph 24.2 mph N/A   Clear
2:15 AM 59.0 °F 19.4 °F 22% 30.32 in 10.0 mi NNE 21.9 mph 27.6 mph N/A   Clear
2:35 AM 59.0 °F 19.4 °F 22% 30.33 in 10.0 mi NE 13.8 mph 25.3 mph N/A   Clear
2:55 AM 59.0 °F 21.2 °F 23% 30.34 in 10.0 mi NNE 15.0 mph 23.0 mph N/A   Clear
3:15 AM 57.2 °F 21.2 °F 25% 30.34 in 10.0 mi NNE 15.0 mph - N/A   Clear
3:35 AM 59.0 °F 21.2 °F 23% 30.34 in 10.0 mi NNE 24.2 mph - N/A   Clear
3:55 AM 59.0 °F 21.2 °F 23% 30.33 in 10.0 mi NNE 27.6 mph 31.1 mph N/A   Clear
4:15 AM 57.2 °F 21.2 °F 25% 30.34 in 10.0 mi NNE 21.9 mph 32.2 mph N/A   Clear
4:35 AM 57.2 °F 21.2 °F 25% 30.34 in 10.0 mi NNE 20.7 mph 24.2 mph N/A   Clear
4:55 AM 57.2 °F 21.2 °F 25% 30.34 in 10.0 mi NNE 23.0 mph 26.5 mph N/A   Clear
5:15 AM 57.2 °F 23.0 °F 27% 30.35 in 10.0 mi NNE 19.6 mph 23.0 mph N/A   Clear
5:35 AM 55.4 °F 21.2 °F 26% 30.36 in 10.0 mi NE 15.0 mph - N/A   Clear
5:55 AM 57.2 °F 21.2 °F 25% 30.36 in 10.0 mi NNE 18.4 mph 24.2 mph N/A   Clear
6:15 AM 55.4 °F 21.2 °F 26% 30.37 in 10.0 mi NNE 15.0 mph 23.0 mph N/A   Clear
6:35 AM 57.2 °F 19.4 °F 23% 30.38 in 10.0 mi NNE 18.4 mph 24.2 mph N/A   Clear
6:55 AM 57.2 °F 19.4 °F 23% 30.39 in 10.0 mi NNE 16.1 mph 20.7 mph N/A   Clear
7:15 AM 57.2 °F 19.4 °F 23% 30.39 in 10.0 mi NNE 19.6 mph 23.0 mph N/A   Clear
7:35 AM 55.4 °F 21.2 °F 26% 30.40 in 10.0 mi North 16.1 mph - N/A   Clear
7:55 AM 55.4 °F 21.2 °F 26% 30.40 in 10.0 mi North 17.3 mph - N/A   Clear
8:15 AM 55.4 °F 21.2 °F 26% 30.40 in 10.0 mi NNE 23.0 mph - N/A   Clear
8:35 AM 55.4 °F 21.2 °F 26% 30.41 in 10.0 mi NNE 21.9 mph - N/A   Clear
8:55 AM 57.2 °F 21.2 °F 25% 30.41 in 10.0 mi NNE 21.9 mph - N/A   Clear
9:15 AM 59.0 °F 19.4 °F 22% 30.43 in 10.0 mi NNE 23.0 mph 27.6 mph N/A   Clear
9:35 AM 59.0 °F 21.2 °F 23% 30.45 in 10.0 mi NNE 19.6 mph 27.6 mph N/A   Clear
9:55 AM 59.0 °F 21.2 °F 23% 30.45 in 10.0 mi NNE 19.6 mph 25.3 mph N/A   Clear
10:15 AM 59.0 °F 21.2 °F 23% 30.46 in 10.0 mi NE 16.1 mph - N/A   Clear
10:35 AM 62.6 °F 21.2 °F 20% 30.46 in 10.0 mi NNE 19.6 mph 27.6 mph N/A   Clear
10:55 AM 64.4 °F 19.4 °F 18% 30.44 in 10.0 mi NNE 29.9 mph 35.7 mph N/A   Clear
11:15 AM 64.4 °F 17.6 °F 16% 30.41 in 10.0 mi North 34.5 mph 41.4 mph N/A   Clear
11:35 AM 66.2 °F 17.6 °F 15% 30.41 in 10.0 mi North 29.9 mph 40.3 mph N/A   Clear
11:55 AM 66.2 °F 17.6 °F 15% 30.40 in 10.0 mi North 32.2 mph 42.6 mph N/A   Clear
12:15 PM 66.2 °F 17.6 °F 15% 30.39 in 10.0 mi North 33.4 mph 39.1 mph N/A   Clear
12:35 PM 66.2 °F 19.4 °F 17% 30.38 in 10.0 mi North 33.4 mph 41.4 mph N/A   Clear
12:55 PM 66.2 °F 19.4 °F 17% 30.38 in 10.0 mi North 28.8 mph 38.0 mph N/A   Clear
1:15 PM 68.0 °F 19.4 °F 16% 30.36 in 10.0 mi North 32.2 mph 36.8 mph N/A   Clear
1:35 PM 68.0 °F 19.4 °F 16% 30.36 in 10.0 mi North 29.9 mph 36.8 mph N/A   Clear
1:55 PM 68.0 °F 19.4 °F 16% 30.34 in 10.0 mi North 28.8 mph 38.0 mph N/A   Clear
2:15 PM 68.0 °F 19.4 °F 16% 30.34 in 10.0 mi North 28.8 mph 39.1 mph N/A   Clear
2:35 PM 68.0 °F 19.4 °F 16% 30.33 in 10.0 mi North 27.6 mph 36.8 mph N/A   Clear
2:55 PM 68.0 °F 19.4 °F 16% 30.32 in 10.0 mi North 29.9 mph 36.8 mph N/A   Clear
3:15 PM 69.8 °F 19.4 °F 15% 30.32 in 10.0 mi North 23.0 mph 35.7 mph N/A   Clear
3:35 PM 69.8 °F 17.6 °F 14% 30.32 in 10.0 mi North 25.3 mph 33.4 mph N/A   Clear
3:55 PM 71.6 °F 17.6 °F 13% 30.31 in 10.0 mi North 28.8 mph 34.5 mph N/A   Clear
4:15 PM 71.6 °F 17.6 °F 13% 30.31 in 10.0 mi North 26.5 mph 32.2 mph N/A   Clear
4:35 PM 71.6 °F 17.6 °F 13% 30.31 in 10.0 mi North 25.3 mph 31.1 mph N/A   Clear
4:55 PM 71.6 °F 17.6 °F 13% 30.30 in 10.0 mi North 28.8 mph 39.1 mph N/A   Clear
5:15 PM 69.8 °F 17.6 °F 14% 30.32 in 10.0 mi North 20.7 mph 32.2 mph N/A   Clear
5:35 PM 69.8 °F 17.6 °F 14% 30.33 in 10.0 mi NNE 18.4 mph 26.5 mph N/A   Clear
5:55 PM 68.0 °F 17.6 °F 15% 30.33 in 10.0 mi NNE 18.4 mph 25.3 mph N/A   Clear
6:15 PM 68.0 °F 17.6 °F 15% 30.33 in 10.0 mi NNE 18.4 mph 25.3 mph N/A   Clear
6:35 PM 68.0 °F 17.6 °F 15% 30.32 in 10.0 mi NNE 20.7 mph 29.9 mph N/A   Clear
6:55 PM 68.0 °F 17.6 °F 15% 30.32 in 10.0 mi NNE 20.7 mph 27.6 mph N/A   Clear
7:15 PM 68.0 °F 17.6 °F 15% 30.33 in 10.0 mi NNE 19.6 mph 24.2 mph N/A   Clear
7:35 PM 66.2 °F 17.6 °F 15% 30.32 in 10.0 mi NNE 24.2 mph - N/A   Clear
7:55 PM 66.2 °F 17.6 °F 15% 30.33 in 10.0 mi NNE 20.7 mph 26.5 mph N/A   Clear
8:15 PM 66.2 °F 15.8 °F 14% 30.33 in 10.0 mi NNE 20.7 mph - N/A   Clear
8:35 PM 66.2 °F 17.6 °F 15% 30.33 in 10.0 mi NNE 25.3 mph - N/A   Clear
8:55 PM 66.2 °F 17.6 °F 15% 30.33 in 10.0 mi NNE 23.0 mph - N/A   Clear
9:15 PM 66.2 °F 17.6 °F 15% 30.35 in 10.0 mi NE 20.7 mph - N/A   Clear
9:35 PM 66.2 °F 17.6 °F 15% 30.36 in 10.0 mi NNE 21.9 mph 27.6 mph N/A   Clear
9:55 PM 66.2 °F 17.6 °F 15% 30.36 in 10.0 mi NNE 20.7 mph 26.5 mph N/A   Clear
10:15 PM 66.2 °F 17.6 °F 15% 30.36 in 10.0 mi NNE 21.9 mph - N/A   Clear
10:35 PM 66.2 °F 17.6 °F 15% 30.36 in 10.0 mi NNE 20.7 mph 26.5 mph N/A   Clear
10:55 PM 64.4 °F 17.6 °F 16% 30.36 in 10.0 mi NNE 20.7 mph 27.6 mph N/A   Clear
11:15 PM 64.4 °F 17.6 °F 16% 30.35 in 10.0 mi North 21.9 mph 26.5 mph N/A   Clear
11:35 PM 64.4 °F 15.8 °F 15% 30.35 in 10.0 mi North 15.0 mph - N/A   Clear
11:55 PM 64.4 °F 15.8 °F 15% 30.35 in 10.0 mi North 19.6 mph 27.6 mph N/A   Clear